Asheville, NC

4:59 AM EDT on June 25, 2017 (GMT -0400)
Asheville Regional

Weather History for KAVL - August, 2007

Change the Weather History Date:

Wednesday, August 29, 2007

  Actual Average Record
Temperature  
Mean Temperature 76 °F 71 °F  
Max Temperature 87 °F 82 °F 98 °F (1948)
Min Temperature 64 °F 61 °F 42 °F (1986)
Degree Days  
Heating Degree Days 0 0  
Month to date heating degree days 0 0  
Since 1 June heating degree days 14  
Since 1 July heating degree days 0 0  
Cooling Degree Days 11 7  
Month to date cooling degree days 352 236  
Year to date cooling degree days 795 746  
Since 1 June cooling degree days 688  
Growing Degree Days 24 (Base 50)    
Moisture  
Dew Point 64 °F    
Average Humidity 72    
Maximum Humidity 93    
Minimum Humidity 51    
Precipitation  
Precipitation T in 0.14 in 4.70 in (1940)
Month to date precipitation 1.44 4.12  
Year to date precipitation 21.02 31.33  
Snow  
Snow 0.00 in 0.00 in 0.00 in ()
Month to date snowfall 0.0 0.0  
Since 1 June snowfall 0.0  
Since 1 July snowfall 0.0 0.0  
Snow Depth -    
Sea Level Pressure  
Sea Level Pressure 30.13 in    
Wind  
Wind Speed 4 mph (NW)    
Max Wind Speed 14 mph    
Max Gust Speed 18 mph    
Visibility 6 miles    
Events      
T = Trace of Precipitation, MM = Missing Value Source: NWS Daily Summary

Daily Weather History Graph

Daily Weather History Graph

Search for Another Location

Airport or City:

Trip Planner

Search our weather history database for the weather conditions in past years. The results will help you decide how hot, cold, wet, or windy it might be!

Date:

Astronomy

Aug. 29, 2007 Rise Set
Actual Time 6:59 AM EDT 8:01 PM EDT
Civil Twilight 6:33 AM EDT 8:27 PM EDT
Nautical Twilight 6:02 AM EDT 8:58 PM EDT
Astronomical Twilight 5:30 AM EDT 9:30 PM EDT
Moon 8:46 PM EDT (8/29) 8:13 AM EDT (8/29)
Length of Visible Light 13h 54m
Length of Day
13h 01m
Full, 98% of the Moon is Illuminated
Aug 29
Full
Sep 3
Last Quarter
Sep 11
New
Sep 19
First Quarter
Sep 26
Full

Hourly Weather History & Observations

Time (EDT) Temp. Heat Index Dew Point Humidity Pressure Visibility Wind Dir Wind Speed Gust Speed Precip Events Conditions
12:54 AM 68.0 °F - 64.9 °F 90% 30.12 in 5.0 mi Calm Calm - N/A   Clear
1:54 AM 66.9 °F - 64.9 °F 93% 30.12 in 6.0 mi Calm Calm - N/A   Clear
2:54 AM 66.9 °F - 64.0 °F 90% 30.11 in 5.0 mi Calm Calm - N/A   Clear
3:54 AM 66.0 °F - 63.0 °F 90% 30.12 in 5.0 mi Calm Calm - N/A   Clear
4:01 AM 66.2 °F - 64.4 °F 94% 30.20 in 5.0 mi Calm Calm - N/A   Scattered Clouds
4:04 AM 66.2 °F - 64.4 °F 94% 30.20 in 5.0 mi Calm Calm - N/A   Mostly Cloudy
4:41 AM 64.4 °F - 62.6 °F 94% 30.20 in 4.0 mi SW 3.5 mph - N/A   Scattered Clouds
4:54 AM 64.9 °F - 63.0 °F 93% 30.12 in 4.0 mi Calm Calm - N/A   Scattered Clouds
5:13 AM 64.4 °F - 62.6 °F 94% 30.21 in 4.0 mi Calm Calm - N/A   Mostly Cloudy
5:21 AM 64.4 °F - 62.6 °F 94% 30.21 in 4.0 mi Calm Calm - N/A   Partly Cloudy
5:54 AM 64.0 °F - 62.1 °F 93% 30.14 in 4.0 mi Calm Calm - N/A   Partly Cloudy
6:30 AM 64.4 °F - 64.4 °F 100% 30.22 in 2.0 mi NW 3.5 mph - N/A   Overcast
6:54 AM 64.9 °F - 63.0 °F 93% 30.15 in 2.0 mi Calm Calm - N/A   Mostly Cloudy
7:45 AM 66.2 °F - 64.4 °F 94% 30.23 in 4.0 mi NW 3.5 mph - N/A   Mostly Cloudy
7:54 AM 66.9 °F - 64.0 °F 90% 30.16 in 4.0 mi NW 3.5 mph - N/A   Mostly Cloudy
8:54 AM 69.1 °F - 64.9 °F 87% 30.16 in 5.0 mi NNW 5.8 mph - N/A   Partly Cloudy
9:54 AM 73.9 °F - 66.0 °F 76% 30.16 in 7.0 mi NNW 4.6 mph - N/A   Clear
10:54 AM 79.0 °F - 66.9 °F 66% 30.14 in 8.0 mi NNW 11.5 mph - N/A   Clear
11:54 AM 82.0 °F 84.5 °F 66.9 °F 60% 30.14 in 10.0 mi NNW 12.7 mph - N/A   Clear
12:54 PM 84.9 °F 87.1 °F 66.0 °F 53% 30.11 in 10.0 mi NNW 8.1 mph - N/A   Clear
1:54 PM 84.9 °F 86.6 °F 64.9 °F 51% 30.09 in 10.0 mi NNW 6.9 mph - N/A   Clear
2:54 PM 75.9 °F - 64.0 °F 67% 30.10 in 10.0 mi Variable 3.5 mph - N/A   Partly Cloudy
3:54 PM 73.0 °F - 62.1 °F 68% 30.10 in 10.0 mi SW 6.9 mph - 0.00 in   Mostly Cloudy
4:54 PM 73.9 °F - 63.0 °F 68% 30.07 in 10.0 mi Variable 3.5 mph - N/A   Clear
5:54 PM 73.0 °F - 64.0 °F 73% 30.08 in 9.0 mi SSE 4.6 mph - N/A   Clear
6:54 PM 73.0 °F - 64.9 °F 76% 30.07 in 8.0 mi South 3.5 mph - N/A   Clear
7:54 PM 71.1 °F - 64.9 °F 81% 30.06 in 7.0 mi Calm Calm - N/A   Clear
8:54 PM 71.1 °F - 64.9 °F 81% 30.06 in 8.0 mi SW 3.5 mph - N/A   Clear
9:54 PM 71.1 °F - 66.0 °F 84% 30.07 in 8.0 mi Calm Calm - N/A   Clear
10:54 PM 71.1 °F - 64.9 °F 81% 30.06 in 9.0 mi NNW 4.6 mph - N/A   Clear
11:54 PM 70.0 °F - 64.9 °F 84% 30.05 in 10.0 mi NNW 4.6 mph - N/A   Scattered Clouds